This is the latest recevied weather packets stored in our database for station/object SA7AHC. If no packets are shown the sender has not sent any weather packets the latest 10 day(s).
| Time | Temp. | Humidity | Pressure | Rain* | Wind** | Luminosity | Snow |
|---|---|---|---|---|---|---|---|
| 1788504961 | 11.67° C | 98% | 1003.6 hPa | 0 mm | - | 114 W/m² | - |
| 1788504362 | 11.67° C | 98% | 1003.5 hPa | 0 mm | - | 132 W/m² | - |
| 1788503761 | 11.67° C | 98% | 1003.8 hPa | 0 mm | - | 88 W/m² | - |
| 1788503161 | 11.67° C | 98% | 1003.8 hPa | 0 mm | - | 81 W/m² | - |
| 1788502561 | 11.67° C | 98% | 1003.8 hPa | 0 mm | - | 40 W/m² | - |
| 1788501962 | 11.67° C | 98% | 1003.8 hPa | 0 mm | - | 63 W/m² | - |
| 1788501361 | 11.11° C | 98% | 1003.8 hPa | 0 mm | - | 60 W/m² | - |
| 1788500761 | 11.11° C | 98% | 1003.8 hPa | 0 mm | - | 44 W/m² | - |
| 1788500161 | 11.11° C | 98% | 1003.9 hPa | 0 mm | - | 33 W/m² | - |
| 1788499562 | 11.11° C | 98% | 1003.9 hPa | 0 mm | - | 19 W/m² | - |
| 1788498961 | 11.11° C | 98% | 1003.9 hPa | 0 mm | - | 28 W/m² | - |
| 1788498362 | 11.11° C | 98% | 1003.9 hPa | 0 mm | - | 16 W/m² | - |
| 1788497761 | 11.11° C | 98% | 1003.9 hPa | 0 mm | - | 16 W/m² | - |
| 1788497163 | 11.11° C | 98% | 1004 hPa | 0 mm | - | 12 W/m² | - |
| 1788496568 | 11.67° C | 98% | 1003.9 hPa | 0 mm | - | 18 W/m² | - |
| 1788495962 | 11.67° C | 98% | 1003.9 hPa | 0 mm | - | 11 W/m² | - |
| 1788495362 | 11.67° C | 98% | 1003.9 hPa | 0 mm | - | 5 W/m² | - |
| 1788494761 | 11.67° C | 98% | 1004.3 hPa | 0 mm | - | 0 W/m² | - |
| 1788494161 | 11.67° C | 98% | 1004.3 hPa | 0 mm | - | 0 W/m² | - |
| 1788493562 | 11.67° C | 98% | 1004.2 hPa | 0 mm | - | 0 W/m² | - |
| 1788492962 | 11.67° C | 98% | 1004.1 hPa | 0 mm | - | 0 W/m² | - |
| 1788492362 | 11.67° C | 98% | 1004.1 hPa | 0 mm | - | 0 W/m² | - |
| 1788491762 | 11.67° C | 98% | 1004.1 hPa | 0 mm | - | 0 W/m² | - |
| 1788491161 | 11.67° C | 98% | 1004.1 hPa | 0 mm | - | 0 W/m² | - |
| 1788490559 | 11.67° C | 98% | 1004.1 hPa | 0.25 mm | - | 0 W/m² | - |
* Rain latest hour (hover to see other rain measurements)
** Current wind speed in m/s (hover to see current wind gust speed)